Погода в Хромтау

Казахстан     50°15′28″N   58°25′58″E
темп.,
°C
ветер,
м/с
пор.,
м/с
влажн.,
%
обл.,
%
осадки,
мм/ч
давл.,
гПа
погр.,
м
27 ноября, сб
сб2723:00−10юз49945 0.0 1037115
02:00−10юз410945 0.0 1037128
05:00−11юз49945 0.0 1037115
08:00−12юз369290 0.0 103770
11:00−9юз378384 0.0 1037106
14:00−7ююз377835 0.0 1036132
17:00−12ююз22845 0.0 103711
20:00−14ююз228937 0.0 103713
28 ноября, вс
вс2823:00−13ююз2293100 0.0 103619
02:00−12юв229182 0.0 103612
05:00−11юв228955 0.0 103527
08:00−11ююв378771 0.0 103480
11:00−8юв41080100 0.0 1033199
14:00−6юв388292 0.0 1031212
17:00−8юв2387100 0.0 103044
20:00−9юв3589100 0.0 103062
29 ноября, пн
пн2923:00−10юв2290100 0.0 102914
02:00−11ююв118981 0.0 102910
05:00−13всв018885 0.0 102910
08:00−12ссз008949 0.0 102810
11:00−10ююв018999 0.0 102914
14:00−6св11835 0.0 102812
17:00−10юз01823 0.0 102810
20:00−11з11770 0.0 102910
30 ноября, вт
вт3023:00−11зюз11730 0.0 102910
02:00−12ю12781 0.0 102810
05:00−12ююз22855 0.0 102711
08:00−12ююз228217 0.0 102713
11:00−8ююв35785 0.0 102570
14:00−4ю397995 0.0 1023171
17:00−6ююв41081100 0.0 1020133
20:00−6ю41380100 0.0 1019187
1 декабря, ср
ср123:00−4ю51577100 0.0 1017254
02:00−2ю51578100 0.0 1015325
05:00−2ю61775100 0.0 1012340
08:00−1ююв71875100 0.0 1009314
11:00+1ююв71876100 0.0 1008362
14:00+1юв8188598 0.4 1005374
17:00+2ююв919835 0.4 1003534
20:000ююв818840 0.0 1001381